Location: Tierra Monte Subdivision
(35.2092°N, 106.4864°W)
Time: 09:27:42
(UTC+00:00)

Aureole 3 - Pass Details

Date: 30 March 2020
Orbit: 381 x 1235 km, 82.5° (Epoch: 05 June)

Event Time Altitude Azimuth Distance (km) Brightness Sun altitude
Exits shadow 03:21:18 66° 226° (SW) 603 3.5 -23.7°
Maximum altitude 03:21:44 75° 277° (W) 583 3.4 -23.7°
Drops below altitude 10° 03:26:18 10° 4° (N) 2,103 6.5 -24.6°
Sets 03:28:54 0° 6° (N) 3,176 7.4 -25.1°
